Forest City, IA

8:09 AM CDT on June 28, 2017 (GMT -0500)
Forest City Municipal

Weather History for KFXY - November, 2013

Change the Weather History Date:

Saturday, November 9, 2013

  Actual Average Record
Temperature  
Mean Temperature 41 °F -  
Max Temperature 50 °F 44 °F 59 °F (2015)
Min Temperature 32 °F 26 °F 26 °F (2016)
Degree Days  
Heating Degree Days 24    
Moisture  
Dew Point 33 °F    
Average Humidity 71    
Maximum Humidity 87    
Minimum Humidity 50    
Precipitation  
Precipitation 0.00 in - - ()
Sea Level Pressure  
Sea Level Pressure 29.99 in    
Wind  
Wind Speed 12 mph (WNW)    
Max Wind Speed 23 mph    
Max Gust Speed 32 mph    
Visibility 10 miles    
Events      
Averages and records for this station are not official NWS values.
T = Trace of Precipitation, MM = Missing Value Source: NWS Daily Summary

Daily Weather History Graph

Daily Weather History Graph

Search for Another Location

Airport or City:

Trip Planner

Search our weather history database for the weather conditions in past years. The results will help you decide how hot, cold, wet, or windy it might be!

Date:

Astronomy

Nov. 09, 2013 Rise Set
Actual Time 7:00 AM CST 4:56 PM CST
Civil Twilight 6:29 AM CST 5:26 PM CST
Nautical Twilight 5:55 AM CST 6:00 PM CST
Astronomical Twilight 5:22 AM CST 6:33 PM CST
Moon 12:35 PM CST (11/9) 11:29 PM CST (11/9)
Length of Visible Light 10h 56m
Length of Day
9h 55m
Waxing Crescent, 44% of the Moon is Illuminated
Nov 9
Waxing Crescent
Nov 9
First Quarter
Nov 17
Full
Nov 25
Last Quarter
Dec 2
New

Hourly Weather History & Observations

Time (CST) Temp. Windchill Dew Point Humidity Pressure Visibility Wind Dir Wind Speed Gust Speed Precip Events Conditions
12:15 AM 44.6 °F 40.7 °F 35.6 °F 71% 29.73 in 10.0 mi West 6.9 mph - N/A   Scattered Clouds
12:35 AM 42.8 °F 37.0 °F 35.6 °F 76% 29.74 in 10.0 mi West 10.4 mph - N/A   Clear
12:55 AM 42.8 °F 35.8 °F 35.6 °F 76% 29.74 in 10.0 mi West 13.8 mph 19.6 mph N/A   Clear
1:15 AM 44.6 °F 37.4 °F 37.4 °F 76% 29.74 in 10.0 mi West 16.1 mph 21.9 mph N/A   Mostly Cloudy
1:35 AM 44.6 °F 38.4 °F 37.4 °F 76% 29.74 in 10.0 mi West 12.7 mph 21.9 mph N/A   Overcast
1:55 AM 44.6 °F 38.8 °F 37.4 °F 76% 29.76 in 10.0 mi West 11.5 mph 18.4 mph N/A   Overcast
2:15 AM 44.6 °F 38.4 °F 35.6 °F 71% 29.76 in 10.0 mi West 12.7 mph 18.4 mph N/A   Mostly Cloudy
2:35 AM 42.8 °F 36.6 °F 35.6 °F 76% 29.77 in 10.0 mi West 11.5 mph 17.3 mph N/A   Clear
2:55 AM 42.8 °F 37.0 °F 35.6 °F 76% 29.77 in 10.0 mi West 10.4 mph - N/A   Clear
3:15 AM 42.8 °F 37.0 °F 35.6 °F 76% 29.77 in 10.0 mi West 10.4 mph - N/A   Clear
3:35 AM 42.8 °F 37.0 °F 35.6 °F 76% 29.77 in 10.0 mi West 10.4 mph - N/A   Clear
3:55 AM 42.8 °F 38.6 °F 33.8 °F 70% 29.79 in 10.0 mi West 6.9 mph - N/A   Clear
4:15 AM 41.0 °F 34.7 °F 33.8 °F 76% 29.80 in 10.0 mi SW 10.4 mph - N/A   Clear
4:35 AM 41.0 °F 35.8 °F 33.8 °F 76% 29.80 in 10.0 mi SW 8.1 mph - N/A   Clear
4:55 AM 39.2 °F 33.6 °F 33.8 °F 81% 29.81 in 10.0 mi WSW 8.1 mph - N/A   Clear
5:15 AM 39.2 °F 33.6 °F 33.8 °F 81% 29.82 in 10.0 mi WSW 8.1 mph - N/A   Clear
5:35 AM 39.2 °F 33.6 °F 33.8 °F 81% 29.83 in 10.0 mi WSW 8.1 mph - N/A   Clear
5:55 AM 37.4 °F 30.8 °F 33.8 °F 87% 29.84 in 10.0 mi WSW 9.2 mph - N/A   Mostly Cloudy
6:15 AM 39.2 °F 35.0 °F 33.8 °F 81% 29.85 in 10.0 mi WSW 5.8 mph - N/A   Overcast
6:35 AM 39.2 °F 35.0 °F 33.8 °F 81% 29.86 in 10.0 mi WSW 5.8 mph - N/A   Overcast
6:55 AM 41.0 °F 36.4 °F 33.8 °F 76% 29.87 in 10.0 mi WSW 6.9 mph - N/A   Overcast
7:15 AM 41.0 °F 35.8 °F 33.8 °F 76% 29.88 in 10.0 mi West 8.1 mph 16.1 mph N/A   Overcast
7:35 AM 41.0 °F 34.7 °F 33.8 °F 76% 29.89 in 10.0 mi West 10.4 mph - N/A   Overcast
7:55 AM 41.0 °F 34.3 °F 33.8 °F 76% 29.91 in 10.0 mi West 11.5 mph - N/A   Overcast
8:15 AM 41.0 °F 35.2 °F 33.8 °F 76% 29.91 in 10.0 mi West 9.2 mph - N/A   Overcast
8:35 AM 42.8 °F 35.8 °F 35.6 °F 76% 29.92 in 10.0 mi West 13.8 mph 19.6 mph N/A   Scattered Clouds
8:55 AM 44.6 °F 37.2 °F 35.6 °F 71% 29.93 in 10.0 mi West 17.3 mph 20.7 mph N/A   Mostly Cloudy
9:15 AM 44.6 °F 37.2 °F 35.6 °F 71% 29.94 in 10.0 mi West 17.3 mph - N/A   Overcast
9:35 AM 44.6 °F 36.1 °F 35.6 °F 71% 29.95 in 10.0 mi WNW 21.9 mph 28.8 mph N/A   Overcast
9:55 AM 46.4 °F 39.0 °F 35.6 °F 66% 29.95 in 10.0 mi WNW 19.6 mph 26.5 mph N/A   Overcast
10:15 AM 44.6 °F 36.4 °F 35.6 °F 71% 29.97 in 10.0 mi WNW 20.7 mph 27.6 mph N/A   Overcast
10:35 AM 44.6 °F 36.1 °F 33.8 °F 66% 29.98 in 10.0 mi WNW 21.9 mph 29.9 mph N/A   Overcast
10:55 AM 46.4 °F 38.5 °F 33.8 °F 62% 29.99 in 10.0 mi WNW 21.9 mph 32.2 mph N/A   Overcast
11:15 AM 46.4 °F 39.0 °F 33.8 °F 62% 30.00 in 10.0 mi WNW 19.6 mph 25.3 mph N/A   Overcast
11:35 AM 48.2 °F - 33.8 °F 58% 30.01 in 10.0 mi WNW 23.0 mph 27.6 mph N/A   Overcast
11:55 AM 46.4 °F 38.7 °F 33.8 °F 62% 30.01 in 10.0 mi WNW 20.7 mph 28.8 mph N/A   Mostly Cloudy
12:15 PM 48.2 °F - 33.8 °F 58% 30.01 in 10.0 mi WNW 21.9 mph 31.1 mph N/A   Mostly Cloudy
12:35 PM 46.4 °F 40.4 °F 32.0 °F 57% 30.01 in 10.0 mi WNW 13.8 mph 24.2 mph N/A   Scattered Clouds
12:55 PM 50.0 °F - 33.8 °F 54% 30.01 in 10.0 mi WNW 17.3 mph 23.0 mph N/A   Mostly Cloudy
1:15 PM 50.0 °F - 32.0 °F 50% 30.01 in 10.0 mi WNW 18.4 mph 27.6 mph N/A   Mostly Cloudy
1:35 PM 50.0 °F - 33.8 °F 54% 30.01 in 10.0 mi West 20.7 mph 24.2 mph N/A   Mostly Cloudy
1:55 PM 50.0 °F - 32.0 °F 50% 30.02 in 10.0 mi WNW 20.7 mph 28.8 mph N/A   Mostly Cloudy
2:15 PM 48.2 °F - 33.8 °F 58% 30.03 in 10.0 mi West 18.4 mph 26.5 mph N/A   Overcast
2:35 PM 48.2 °F - 32.0 °F 54% 30.03 in 10.0 mi WNW 20.7 mph 28.8 mph N/A   Mostly Cloudy
2:55 PM 46.4 °F 39.5 °F 32.0 °F 57% 30.04 in 10.0 mi WNW 17.3 mph 24.2 mph N/A   Mostly Cloudy
3:15 PM 46.4 °F 39.0 °F 32.0 °F 57% 30.05 in 10.0 mi West 19.6 mph 26.5 mph N/A   Mostly Cloudy
3:35 PM 46.4 °F 39.5 °F 32.0 °F 57% 30.06 in 10.0 mi WNW 17.3 mph 21.9 mph N/A   Scattered Clouds
3:55 PM 46.4 °F 39.0 °F 32.0 °F 57% 30.06 in 10.0 mi WNW 19.6 mph 26.5 mph N/A   Mostly Cloudy
4:15 PM 44.6 °F 37.2 °F 32.0 °F 61% 30.07 in 10.0 mi WNW 17.3 mph 21.9 mph N/A   Mostly Cloudy
4:35 PM 44.6 °F 37.8 °F 32.0 °F 61% 30.08 in 10.0 mi WNW 15.0 mph 21.9 mph N/A   Mostly Cloudy
4:55 PM 44.6 °F 36.9 °F 32.0 °F 61% 30.10 in 10.0 mi NW 18.4 mph - N/A   Overcast
5:15 PM 41.0 °F 34.7 °F 32.0 °F 70% 30.11 in 10.0 mi NW 10.4 mph - N/A   Mostly Cloudy
5:35 PM 39.2 °F 35.9 °F 30.2 °F 70% 30.11 in 10.0 mi NW 4.6 mph - N/A   Scattered Clouds
5:55 PM 35.6 °F 31.7 °F 30.2 °F 81% 30.13 in 10.0 mi WNW 4.6 mph - N/A   Scattered Clouds
6:15 PM 35.6 °F 31.7 °F 30.2 °F 81% 30.14 in 10.0 mi WNW 4.6 mph - N/A   Scattered Clouds
6:35 PM 35.6 °F 30.7 °F 32.0 °F 87% 30.15 in 10.0 mi WNW 5.8 mph - N/A   Overcast
6:55 PM 33.8 °F 28.6 °F 30.2 °F 87% 30.16 in 10.0 mi West 5.8 mph - N/A   Mostly Cloudy
7:15 PM 37.4 °F 30.8 °F 32.0 °F 81% 30.16 in 10.0 mi WNW 9.2 mph - N/A   Overcast
7:35 PM 37.4 °F 29.3 °F 28.4 °F 70% 30.17 in 10.0 mi WNW 12.7 mph - N/A   Scattered Clouds
8:35 PM 37.4 °F 29.8 °F 28.4 °F 70% 30.19 in 10.0 mi NW 11.5 mph 18.4 mph N/A   Clear
8:55 PM 37.4 °F 28.5 °F 28.4 °F 70% 30.19 in 10.0 mi NW 15.0 mph 20.7 mph N/A   Clear
9:15 PM 35.6 °F 27.5 °F 28.4 °F 75% 30.21 in 10.0 mi NW 11.5 mph 16.1 mph N/A   Clear
9:35 PM 35.6 °F 27.1 °F 28.4 °F 75% 30.21 in 10.0 mi NW 12.7 mph 18.4 mph N/A   Clear
9:55 PM 33.8 °F 25.3 °F 28.4 °F 81% 30.23 in 10.0 mi NW 11.5 mph - N/A   Clear
10:15 PM 33.8 °F 24.3 °F 26.6 °F 75% 30.24 in 10.0 mi WNW 13.8 mph - N/A   Clear
10:35 PM 33.8 °F 24.3 °F 26.6 °F 75% 30.24 in 10.0 mi WNW 13.8 mph 17.3 mph N/A   Clear
10:55 PM 32.0 °F 21.6 °F 26.6 °F 80% 30.24 in 10.0 mi WNW 15.0 mph 20.7 mph N/A   Clear
11:15 PM 32.0 °F 22.5 °F 26.6 °F 80% 30.24 in 10.0 mi WNW 12.7 mph - N/A   Clear
11:35 PM 32.0 °F 23.0 °F 26.6 °F 80% 30.26 in 10.0 mi WNW 11.5 mph - N/A   Clear
11:55 PM 32.0 °F 23.0 °F 26.6 °F 80% 30.26 in 10.0 mi WNW 11.5 mph - N/A   Clear